Time,TemperatureF,DewpointF,PressureIn,WindDirection,WindDirectionDegrees,WindSpeedMPH,WindSpeedGustMPH,Humidity,HourlyPrecipIn,Conditions,Clouds,dailyrainin,SoftwareType,DateUTC
2013-03-04 00:00:00,62.5,53.3,29.97,South,179,8.0,8.0,72,0.00,,,0.00,Wunderground v.1.15,2013-03-04 06:00:00,
2013-03-04 00:10:00,62.5,53.7,29.97,South,169,9.0,9.0,73,0.00,,,0.00,Wunderground v.1.15,2013-03-04 06:10:00,
2013-03-04 00:20:00,62.5,53.7,29.96,SSW,196,8.0,8.0,73,0.00,,,0.00,Wunderground v.1.15,2013-03-04 06:20:00,
2013-03-04 00:25:00,62.5,53.7,29.96,South,186,9.0,9.0,73,0.00,,,0.00,Wunderground v.1.15,2013-03-04 06:25:00,
2013-03-04 00:30:00,62.5,53.7,29.96,South,188,8.0,11.0,73,0.00,,,0.00,Wunderground v.1.15,2013-03-04 06:30:00,
2013-03-04 00:35:00,62.5,53.7,29.96,SSE,159,9.0,11.0,73,0.00,,,0.00,Wunderground v.1.15,2013-03-04 06:35:00,
2013-03-04 00:40:00,62.5,53.7,29.95,SE,136,9.0,12.0,73,0.00,,,0.00,Wunderground v.1.15,2013-03-04 06:40:00,
2013-03-04 00:50:00,62.6,53.8,29.95,SSW,195,9.0,9.0,73,0.00,,,0.00,Wunderground v.1.15,2013-03-04 06:50:00,
2013-03-04 00:55:00,62.6,53.8,29.95,West,262,8.0,9.0,73,0.00,,,0.00,Wunderground v.1.15,2013-03-04 06:55:00,
2013-03-04 01:00:00,62.6,53.8,29.95,SSW,197,8.0,8.0,73,0.00,,,0.00,Wunderground v.1.15,2013-03-04 07:00:00,
2013-03-04 01:10:00,62.6,54.2,29.95,SSE,160,8.0,9.0,74,0.00,,,0.00,Wunderground v.1.15,2013-03-04 07:10:00,
2013-03-04 01:15:00,62.6,54.2,29.95,SE,137,9.0,9.0,74,0.00,,,0.00,Wunderground v.1.15,2013-03-04 07:15:00,
2013-03-04 01:20:00,62.6,54.2,29.94,SSE,165,9.0,9.0,74,0.00,,,0.00,Wunderground v.1.15,2013-03-04 07:20:00,
2013-03-04 01:25:00,62.6,54.2,29.94,South,176,8.0,9.0,74,0.00,,,0.00,Wunderground v.1.15,2013-03-04 07:25:00,
2013-03-04 01:30:00,62.5,54.1,29.94,South,190,7.0,10.0,74,0.00,,,0.00,Wunderground v.1.15,2013-03-04 07:30:00,
2013-03-04 01:35:00,62.4,54.4,29.94,South,184,6.0,10.0,75,0.00,,,0.00,Wunderground v.1.15,2013-03-04 07:35:00,
2013-03-04 01:40:00,62.5,54.5,29.94,SSW,197,7.0,8.0,75,0.00,,,0.00,Wunderground v.1.15,2013-03-04 07:40:00,
2013-03-04 01:45:00,62.5,54.5,29.94,SSE,163,8.0,8.0,75,0.00,,,0.00,Wunderground v.1.15,2013-03-04 07:45:00,
2013-03-04 01:55:00,62.4,54.7,29.93,SSW,200,7.0,10.0,76,0.00,,,0.00,Wunderground v.1.15,2013-03-04 07:55:00,
2013-03-04 02:00:00,62.4,54.7,29.93,SSW,194,7.0,7.0,76,0.00,,,0.00,Wunderground v.1.15,2013-03-04 08:00:00,
2013-03-04 02:10:00,62.3,55.0,29.93,SW,226,7.0,7.0,77,0.00,,,0.00,Wunderground v.1.15,2013-03-04 08:10:00,
2013-03-04 02:15:00,62.4,55.1,29.93,SSW,205,8.0,8.0,77,0.00,,,0.00,Wunderground v.1.15,2013-03-04 08:15:00,
2013-03-04 02:20:00,62.4,55.1,29.93,SW,218,8.0,8.0,77,0.00,,,0.00,Wunderground v.1.15,2013-03-04 08:20:00,
2013-03-04 02:25:00,62.4,55.1,29.92,SSE,151,8.0,11.0,77,0.00,,,0.00,Wunderground v.1.15,2013-03-04 08:25:00,
2013-03-04 02:30:00,62.3,55.4,29.92,SSE,165,8.0,8.0,78,0.00,,,0.00,Wunderground v.1.15,2013-03-04 08:30:00,
2013-03-04 02:35:00,62.2,55.3,29.91,SSW,195,6.0,8.0,78,0.00,,,0.00,Wunderground v.1.15,2013-03-04 08:35:00,
2013-03-04 02:40:00,62.1,55.2,29.91,SW,229,7.0,7.0,78,0.00,,,0.00,Wunderground v.1.15,2013-03-04 08:40:00,
2013-03-04 02:45:00,62.0,55.1,29.91,South,184,7.0,7.0,78,0.00,,,0.00,Wunderground v.1.15,2013-03-04 08:45:00,
2013-03-04 02:50:00,62.0,55.4,29.91,SSW,200,6.0,6.0,79,0.00,,,0.00,Wunderground v.1.15,2013-03-04 08:50:00,
2013-03-04 03:00:00,61.9,55.3,29.91,SW,226,6.0,10.0,79,0.00,,,0.00,Wunderground v.1.15,2013-03-04 09:00:00,
2013-03-04 03:10:00,61.8,55.2,29.90,ESE,115,7.0,7.0,79,0.00,,,0.00,Wunderground v.1.15,2013-03-04 09:10:00,
2013-03-04 03:15:00,61.8,55.2,29.90,South,191,7.0,7.0,79,0.00,,,0.00,Wunderground v.1.15,2013-03-04 09:15:00,
2013-03-04 03:20:00,61.7,55.5,29.90,SSW,201,7.0,7.0,80,0.00,,,0.00,Wunderground v.1.15,2013-03-04 09:20:00,
2013-03-04 03:25:00,61.6,55.4,29.90,SSW,209,5.0,7.0,80,0.00,,,0.00,Wunderground v.1.15,2013-03-04 09:25:00,
2013-03-04 03:30:00,61.5,55.3,29.90,SSW,201,6.0,11.0,80,0.00,,,0.00,Wunderground v.1.15,2013-03-04 09:30:00,
2013-03-04 03:35:00,61.5,55.3,29.90,SSW,198,7.0,11.0,80,0.00,,,0.00,Wunderground v.1.15,2013-03-04 09:35:00,
2013-03-04 03:40:00,61.4,55.2,29.90,SW,231,7.0,7.0,80,0.00,,,0.00,Wunderground v.1.15,2013-03-04 09:40:00,
2013-03-04 03:45:00,61.3,55.1,29.90,SSW,208,6.0,8.0,80,0.00,,,0.00,Wunderground v.1.15,2013-03-04 09:45:00,
2013-03-04 03:50:00,61.3,55.1,29.90,South,181,7.0,13.0,80,0.00,,,0.00,Wunderground v.1.15,2013-03-04 09:50:00,
2013-03-04 03:55:00,61.3,55.1,29.89,South,180,7.0,13.0,80,0.00,,,0.00,Wunderground v.1.15,2013-03-04 09:55:00,
2013-03-04 04:00:00,61.2,55.0,29.89,SW,219,7.0,7.0,80,0.00,,,0.00,Wunderground v.1.15,2013-03-04 10:00:00,
2013-03-04 04:10:00,61.2,55.0,29.89,South,169,7.0,7.0,80,0.00,,,0.00,Wunderground v.1.15,2013-03-04 10:10:00,
2013-03-04 04:15:00,61.3,55.1,29.89,South,183,8.0,8.0,80,0.00,,,0.00,Wunderground v.1.15,2013-03-04 10:15:00,
2013-03-04 04:20:00,61.3,55.1,29.88,SSW,200,8.0,9.0,80,0.00,,,0.00,Wunderground v.1.15,2013-03-04 10:20:00,
2013-03-04 04:25:00,61.3,55.1,29.89,SSW,204,8.0,9.0,80,0.00,,,0.00,Wunderground v.1.15,2013-03-04 10:25:00,
2013-03-04 04:30:00,61.3,55.1,29.89,SSE,149,9.0,9.0,80,0.00,,,0.00,Wunderground v.1.15,2013-03-04 10:30:00,
2013-03-04 04:35:00,61.3,55.1,29.89,SSW,210,8.0,11.0,80,0.00,,,0.00,Wunderground v.1.15,2013-03-04 10:35:00,
2013-03-04 04:40:00,61.3,55.1,29.89,South,183,7.0,7.0,80,0.00,,,0.00,Wunderground v.1.15,2013-03-04 10:40:00,
2013-03-04 04:45:00,61.3,55.1,29.89,South,169,7.0,12.0,80,0.00,,,0.00,Wunderground v.1.15,2013-03-04 10:45:00,
2013-03-04 04:50:00,61.2,55.3,29.89,SSW,207,8.0,8.0,81,0.00,,,0.00,Wunderground v.1.15,2013-03-04 10:50:00,
2013-03-04 04:55:00,61.2,55.3,29.89,SW,228,8.0,8.0,81,0.00,,,0.00,Wunderground v.1.15,2013-03-04 10:55:00,
2013-03-04 05:00:00,61.2,55.3,29.88,SSW,201,8.0,8.0,81,0.00,,,0.00,Wunderground v.1.15,2013-03-04 11:00:00,
2013-03-04 05:10:00,61.1,55.2,29.88,SSW,197,8.0,8.0,81,0.00,,,0.00,Wunderground v.1.15,2013-03-04 11:10:00,
2013-03-04 05:15:00,61.1,55.2,29.88,SW,215,8.0,8.0,81,0.00,,,0.00,Wunderground v.1.15,2013-03-04 11:15:00,
2013-03-04 05:20:00,61.1,55.6,29.88,SW,228,8.0,8.0,82,0.00,,,0.00,Wunderground v.1.15,2013-03-04 11:20:00,
2013-03-04 05:25:00,61.1,55.6,29.87,WSW,238,9.0,12.0,82,0.00,,,0.00,Wunderground v.1.15,2013-03-04 11:25:00,
2013-03-04 05:30:00,61.1,55.6,29.87,SE,139,9.0,13.0,82,0.00,,,0.00,Wunderground v.1.15,2013-03-04 11:30:00,
2013-03-04 05:35:00,61.1,55.6,29.87,WSW,256,9.0,13.0,82,0.00,,,0.00,Wunderground v.1.15,2013-03-04 11:35:00,
2013-03-04 05:40:00,61.1,55.6,29.88,SW,229,9.0,9.0,82,0.00,,,0.00,Wunderground v.1.15,2013-03-04 11:40:00,
2013-03-04 05:45:00,61.1,55.6,29.87,SSW,194,8.0,10.0,82,0.00,,,0.00,Wunderground v.1.15,2013-03-04 11:45:00,
2013-03-04 05:50:00,61.2,55.7,29.87,South,181,9.0,9.0,82,0.00,,,0.00,Wunderground v.1.15,2013-03-04 11:50:00,
2013-03-04 05:55:00,61.3,55.8,29.88,SW,219,9.0,13.0,82,0.00,,,0.00,Wunderground v.1.15,2013-03-04 11:55:00,
2013-03-04 06:00:00,61.3,55.8,29.88,SE,128,8.0,11.0,82,0.00,,,0.00,Wunderground v.1.15,2013-03-04 12:00:00,
2013-03-04 06:10:00,61.4,55.9,29.88,South,184,7.0,7.0,82,0.00,,,0.00,Wunderground v.1.15,2013-03-04 12:10:00,
2013-03-04 06:20:00,61.3,55.8,29.88,South,190,6.0,6.0,82,0.00,,,0.00,Wunderground v.1.15,2013-03-04 12:20:00,
2013-03-04 06:25:00,61.2,56.0,29.88,SW,222,7.0,11.0,83,0.00,,,0.00,Wunderground v.1.15,2013-03-04 12:25:00,
2013-03-04 06:30:00,61.2,56.0,29.88,South,176,7.0,8.0,83,0.00,,,0.00,Wunderground v.1.15,2013-03-04 12:30:00,
2013-03-04 06:35:00,61.2,56.0,29.88,SSE,163,7.0,9.0,83,0.00,,,0.00,Wunderground v.1.15,2013-03-04 12:35:00,
2013-03-04 06:40:00,61.2,56.0,29.88,SW,214,7.0,7.0,83,0.00,,,0.00,Wunderground v.1.15,2013-03-04 12:40:00,
2013-03-04 06:50:00,61.2,56.3,29.88,SE,143,7.0,7.0,84,0.00,,,0.00,Wunderground v.1.15,2013-03-04 12:50:00,
2013-03-04 06:55:00,61.2,56.3,29.88,SSE,162,7.0,8.0,84,0.00,,,0.00,Wunderground v.1.15,2013-03-04 12:55:00,
2013-03-04 07:00:00,61.2,56.3,29.88,West,264,7.0,7.0,84,0.00,,,0.00,Wunderground v.1.15,2013-03-04 13:00:00,
2013-03-04 07:10:00,61.5,56.6,29.88,SSW,203,7.0,7.0,84,0.00,,,0.00,Wunderground v.1.15,2013-03-04 13:10:00,
2013-03-04 07:15:00,61.7,56.8,29.88,South,178,8.0,8.0,84,0.00,,,0.00,Wunderground v.1.15,2013-03-04 13:15:00,
2013-03-04 07:25:00,62.2,57.0,29.89,South,178,9.0,14.0,83,0.00,,,0.00,Wunderground v.1.15,2013-03-04 13:25:00,
2013-03-04 07:30:00,62.4,57.2,29.89,SSW,193,8.0,8.0,83,0.00,,,0.00,Wunderground v.1.15,2013-03-04 13:30:00,
2013-03-04 07:35:00,62.6,57.4,29.89,SSW,203,8.0,8.0,83,0.00,,,0.00,Wunderground v.1.15,2013-03-04 13:35:00,
2013-03-04 07:40:00,62.8,57.2,29.89,South,186,10.0,10.0,82,0.00,,,0.00,Wunderground v.1.15,2013-03-04 13:40:00,
2013-03-04 07:45:00,63.0,57.4,29.89,SSW,195,9.0,12.0,82,0.00,,,0.00,Wunderground v.1.15,2013-03-04 13:45:00,
2013-03-04 07:55:00,63.5,57.6,29.89,South,188,8.0,9.0,81,0.00,,,0.00,Wunderground v.1.15,2013-03-04 13:55:00,
2013-03-04 08:00:00,63.8,57.5,29.89,SSW,209,7.0,9.0,80,0.00,,,0.00,Wunderground v.1.15,2013-03-04 14:00:00,
2013-03-04 08:10:00,64.5,57.8,29.89,SSW,195,8.0,8.0,79,0.00,,,0.00,Wunderground v.1.15,2013-03-04 14:10:00,
2013-03-04 08:15:00,64.7,57.7,29.89,SW,214,7.0,8.0,78,0.00,,,0.00,Wunderground v.1.15,2013-03-04 14:15:00,
2013-03-04 08:20:00,64.9,57.9,29.89,WSW,245,7.0,8.0,78,0.00,,,0.00,Wunderground v.1.15,2013-03-04 14:20:00,
2013-03-04 08:30:00,65.5,57.7,29.89,SSW,198,8.0,10.0,76,0.00,,,0.00,Wunderground v.1.15,2013-03-04 14:30:00,
2013-03-04 08:35:00,65.9,58.1,29.89,South,172,8.0,13.0,76,0.00,,,0.00,Wunderground v.1.15,2013-03-04 14:35:00,
2013-03-04 08:40:00,66.1,57.9,29.90,SSW,213,10.0,10.0,75,0.00,,,0.00,Wunderground v.1.15,2013-03-04 14:40:00,
2013-03-04 08:45:00,66.5,58.0,29.89,SSW,201,10.0,10.0,74,0.00,,,0.00,Wunderground v.1.15,2013-03-04 14:45:00,
2013-03-04 08:50:00,66.8,58.2,29.89,SSW,196,9.0,9.0,74,0.00,,,0.00,Wunderground v.1.15,2013-03-04 14:50:00,
2013-03-04 08:55:00,67.0,58.1,29.89,SE,146,9.0,13.0,73,0.00,,,0.00,Wunderground v.1.15,2013-03-04 14:55:00,
2013-03-04 09:00:00,67.2,57.9,29.89,SSW,194,11.0,11.0,72,0.00,,,0.00,Wunderground v.1.15,2013-03-04 15:00:00,
2013-03-04 09:10:00,67.7,57.6,29.89,South,190,11.0,20.0,70,0.00,,,0.00,Wunderground v.1.15,2013-03-04 15:10:00,
2013-03-04 09:15:00,67.9,57.8,29.89,SSW,205,11.0,20.0,70,0.00,,,0.00,Wunderground v.1.15,2013-03-04 15:15:00,
2013-03-04 09:20:00,68.1,57.9,29.89,SSW,211,9.0,10.0,70,0.00,,,0.00,Wunderground v.1.15,2013-03-04 15:20:00,
2013-03-04 09:25:00,68.4,57.8,29.89,SSW,200,10.0,10.0,69,0.00,,,0.00,Wunderground v.1.15,2013-03-04 15:25:00,
2013-03-04 09:35:00,69.1,57.7,29.88,SSE,165,9.0,11.0,67,0.00,,,0.00,Wunderground v.1.15,2013-03-04 15:35:00,
2013-03-04 09:40:00,69.5,58.1,29.89,ESE,116,8.0,21.0,67,0.00,,,0.00,Wunderground v.1.15,2013-03-04 15:40:00,
2013-03-04 09:45:00,69.7,57.8,29.88,South,184,9.0,21.0,66,0.00,,,0.00,Wunderground v.1.15,2013-03-04 15:45:00,
2013-03-04 09:50:00,70.1,58.2,29.88,South,178,10.0,10.0,66,0.00,,,0.00,Wunderground v.1.15,2013-03-04 15:50:00,
2013-03-04 09:55:00,70.6,57.8,29.88,WSW,238,9.0,10.0,64,0.00,,,0.00,Wunderground v.1.15,2013-03-04 15:55:00,
2013-03-04 10:00:00,71.3,58.1,29.88,SSW,201,8.0,10.0,63,0.00,,,0.00,Wunderground v.1.15,2013-03-04 16:00:00,
2013-03-04 10:10:00,71.5,57.3,29.87,SSW,197,11.0,15.0,61,0.00,,,0.00,Wunderground v.1.15,2013-03-04 16:10:00,
2013-03-04 10:15:00,72.0,57.8,29.87,WSW,237,9.0,15.0,61,0.00,,,0.00,Wunderground v.1.15,2013-03-04 16:15:00,
2013-03-04 10:20:00,72.4,58.6,29.86,WNW,285,8.0,8.0,62,0.00,,,0.00,Wunderground v.1.15,2013-03-04 16:20:00,
2013-03-04 10:25:00,72.8,58.6,29.86,SSE,158,9.0,9.0,61,0.00,,,0.00,Wunderground v.1.15,2013-03-04 16:25:00,
2013-03-04 10:30:00,72.9,58.2,29.86,SSW,193,9.0,9.0,60,0.00,,,0.00,Wunderground v.1.15,2013-03-04 16:30:00,
2013-03-04 10:40:00,73.7,58.0,29.85,South,188,9.0,9.0,58,0.00,,,0.00,Wunderground v.1.15,2013-03-04 16:40:00,
2013-03-04 10:45:00,74.0,58.8,29.85,SW,218,10.0,10.0,59,0.00,,,0.00,Wunderground v.1.15,2013-03-04 16:45:00,
2013-03-04 10:50:00,74.3,58.1,29.85,SSE,148,10.0,10.0,57,0.00,,,0.00,Wunderground v.1.15,2013-03-04 16:50:00,
2013-03-04 10:55:00,74.6,58.4,29.85,South,172,10.0,10.0,57,0.00,,,0.00,Wunderground v.1.15,2013-03-04 16:55:00,
2013-03-04 11:00:00,75.0,57.7,29.85,SW,217,10.0,12.0,55,0.00,,,0.00,Wunderground v.1.15,2013-03-04 17:00:00,
2013-03-04 11:10:00,76.1,57.7,29.84,South,173,8.0,14.0,53,0.00,,,0.00,Wunderground v.1.15,2013-03-04 17:10:00,
2013-03-04 11:15:00,76.3,57.4,29.85,SW,226,9.0,14.0,52,0.00,,,0.00,Wunderground v.1.15,2013-03-04 17:15:00,
2013-03-04 11:20:00,76.6,57.7,29.85,South,191,10.0,10.0,52,0.00,,,0.00,Wunderground v.1.15,2013-03-04 17:20:00,
2013-03-04 11:25:00,76.9,57.9,29.84,SSW,200,9.0,11.0,52,0.00,,,0.00,Wunderground v.1.15,2013-03-04 17:25:00,
2013-03-04 11:30:00,77.1,57.6,29.84,South,187,10.0,10.0,51,0.00,,,0.00,Wunderground v.1.15,2013-03-04 17:30:00,
2013-03-04 11:35:00,77.5,57.4,29.84,South,176,10.0,11.0,50,0.00,,,0.00,Wunderground v.1.15,2013-03-04 17:35:00,
2013-03-04 11:40:00,78.0,57.3,29.84,SSE,147,9.0,10.0,49,0.00,,,0.00,Wunderground v.1.15,2013-03-04 17:40:00,
2013-03-04 11:45:00,78.2,58.0,29.84,South,187,9.0,10.0,50,0.00,,,0.00,Wunderground v.1.15,2013-03-04 17:45:00,
2013-03-04 11:50:00,78.5,57.7,29.83,South,173,8.0,16.0,49,0.00,,,0.00,Wunderground v.1.15,2013-03-04 17:50:00,
2013-03-04 11:55:00,78.7,57.9,29.83,SW,226,8.0,18.0,49,0.00,,,0.00,Wunderground v.1.15,2013-03-04 17:55:00,
2013-03-04 12:00:00,78.8,57.4,29.83,SSW,194,9.0,10.0,48,0.00,,,0.00,Wunderground v.1.15,2013-03-04 18:00:00,
2013-03-04 12:10:00,79.0,57.0,29.82,SSE,162,10.0,10.0,47,0.00,,,0.00,Wunderground v.1.15,2013-03-04 18:10:00,
2013-03-04 12:20:00,80.1,56.8,29.81,SSE,160,8.0,14.0,45,0.00,,,0.00,Wunderground v.1.15,2013-03-04 18:20:00,
2013-03-04 12:25:00,80.3,57.0,29.81,SSW,195,8.0,14.0,45,0.00,,,0.00,Wunderground v.1.15,2013-03-04 18:25:00,
2013-03-04 12:30:00,80.3,58.8,29.80,South,176,8.0,8.0,48,0.00,,,0.00,Wunderground v.1.15,2013-03-04 18:30:00,
2013-03-04 12:35:00,80.9,59.4,29.80,SSE,163,7.0,8.0,48,0.00,,,0.00,Wunderground v.1.15,2013-03-04 18:35:00,
2013-03-04 12:40:00,80.8,58.7,29.80,South,183,7.0,8.0,47,0.00,,,0.00,Wunderground v.1.15,2013-03-04 18:40:00,
2013-03-04 12:50:00,79.9,59.0,29.79,South,176,9.0,15.0,49,0.00,,,0.00,Wunderground v.1.15,2013-03-04 18:50:00,
2013-03-04 12:55:00,79.9,59.0,29.79,SSE,150,9.0,15.0,49,0.00,,,0.00,Wunderground v.1.15,2013-03-04 18:55:00,
2013-03-04 13:00:00,79.6,58.8,29.79,SSE,162,10.0,10.0,49,0.00,,,0.00,Wunderground v.1.15,2013-03-04 19:00:00,
2013-03-04 13:10:00,80.0,59.1,29.78,South,181,9.0,9.0,49,0.00,,,0.00,Wunderground v.1.15,2013-03-04 19:10:00,
2013-03-04 13:15:00,80.7,59.2,29.78,SSE,162,8.0,9.0,48,0.00,,,0.00,Wunderground v.1.15,2013-03-04 19:15:00,
2013-03-04 13:25:00,80.6,59.1,29.78,ESE,123,9.0,9.0,48,0.00,,,0.00,Wunderground v.1.15,2013-03-04 19:25:00,
2013-03-04 13:30:00,80.4,58.9,29.77,South,175,9.0,9.0,48,0.00,,,0.00,Wunderground v.1.15,2013-03-04 19:30:00,
2013-03-04 13:35:00,80.5,59.0,29.77,SE,145,9.0,9.0,48,0.00,,,0.00,Wunderground v.1.15,2013-03-04 19:35:00,
2013-03-04 13:40:00,81.0,58.9,29.77,ESE,122,9.0,9.0,47,0.00,,,0.00,Wunderground v.1.15,2013-03-04 19:40:00,
2013-03-04 13:45:00,81.1,59.0,29.76,SSW,193,9.0,9.0,47,0.00,,,0.00,Wunderground v.1.15,2013-03-04 19:45:00,
2013-03-04 13:55:00,80.4,59.5,29.76,SSE,148,10.0,10.0,49,0.00,,,0.00,Wunderground v.1.15,2013-03-04 19:55:00,
2013-03-04 14:00:00,80.6,59.7,29.75,South,169,9.0,9.0,49,0.00,,,0.00,Wunderground v.1.15,2013-03-04 20:00:00,
2013-03-04 14:10:00,80.4,59.5,29.75,SE,124,9.0,9.0,49,0.00,,,0.00,Wunderground v.1.15,2013-03-04 20:10:00,
2013-03-04 14:15:00,80.2,59.3,29.75,South,190,10.0,12.0,49,0.00,,,0.00,Wunderground v.1.15,2013-03-04 20:15:00,
2013-03-04 14:20:00,79.9,59.6,29.75,South,191,10.0,10.0,50,0.00,,,0.00,Wunderground v.1.15,2013-03-04 20:20:00,
2013-03-04 14:30:00,80.1,59.8,29.74,SSW,197,9.0,14.0,50,0.00,,,0.00,Wunderground v.1.15,2013-03-04 20:30:00,
2013-03-04 14:35:00,79.7,60.0,29.74,ESE,115,10.0,14.0,51,0.00,,,0.00,Wunderground v.1.15,2013-03-04 20:35:00,
2013-03-04 14:40:00,79.8,58.9,29.74,SSE,162,10.0,13.0,49,0.00,,,0.00,Wunderground v.1.15,2013-03-04 20:40:00,
2013-03-04 14:45:00,79.8,60.1,29.74,SSE,158,9.0,14.0,51,0.00,,,0.00,Wunderground v.1.15,2013-03-04 20:45:00,
2013-03-04 14:50:00,79.6,59.9,29.74,SE,143,10.0,18.0,51,0.00,,,0.00,Wunderground v.1.15,2013-03-04 20:50:00,
2013-03-04 15:00:00,79.3,59.6,29.74,SE,139,10.0,10.0,51,0.00,,,0.00,Wunderground v.1.15,2013-03-04 21:00:00,
2013-03-04 15:10:00,78.7,59.6,29.73,South,173,11.0,14.0,52,0.00,,,0.00,Wunderground v.1.15,2013-03-04 21:10:00,
2013-03-04 15:15:00,78.8,60.2,29.73,South,176,11.0,18.0,53,0.00,,,0.00,Wunderground v.1.15,2013-03-04 21:15:00,
2013-03-04 15:20:00,78.4,60.4,29.73,SW,224,10.0,10.0,54,0.00,,,0.00,Wunderground v.1.15,2013-03-04 21:20:00,
2013-03-04 15:25:00,78.7,60.1,29.73,SSE,155,10.0,10.0,53,0.00,,,0.00,Wunderground v.1.15,2013-03-04 21:25:00,
2013-03-04 15:35:00,78.1,60.1,29.72,SSE,153,11.0,11.0,54,0.00,,,0.00,Wunderground v.1.15,2013-03-04 21:35:00,
2013-03-04 15:40:00,78.1,60.1,29.73,WSW,246,10.0,10.0,54,0.00,,,0.00,Wunderground v.1.15,2013-03-04 21:40:00,
2013-03-04 15:45:00,78.2,60.2,29.72,SE,144,10.0,12.0,54,0.00,,,0.00,Wunderground v.1.15,2013-03-04 21:45:00,
2013-03-04 15:50:00,78.1,60.1,29.72,SW,221,10.0,10.0,54,0.00,,,0.00,Wunderground v.1.15,2013-03-04 21:50:00,
2013-03-04 15:55:00,77.8,60.3,29.72,SSE,156,10.0,10.0,55,0.00,,,0.00,Wunderground v.1.15,2013-03-04 21:55:00,
2013-03-04 16:00:00,77.7,59.7,29.72,SSW,205,11.0,11.0,54,0.00,,,0.00,Wunderground v.1.15,2013-03-04 22:00:00,
2013-03-04 16:10:00,77.5,60.1,29.72,South,186,11.0,16.0,55,0.00,,,0.00,Wunderground v.1.15,2013-03-04 22:10:00,
2013-03-04 16:15:00,77.3,60.4,29.72,SSW,193,11.0,16.0,56,0.00,,,0.00,Wunderground v.1.15,2013-03-04 22:15:00,
2013-03-04 16:20:00,76.8,60.4,29.72,SSW,208,11.0,11.0,57,0.00,,,0.00,Wunderground v.1.15,2013-03-04 22:20:00,
2013-03-04 16:25:00,76.8,60.4,29.72,South,169,10.0,11.0,57,0.00,,,0.00,Wunderground v.1.15,2013-03-04 22:25:00,
2013-03-04 16:30:00,76.9,60.5,29.72,SSE,165,10.0,10.0,57,0.00,,,0.00,Wunderground v.1.15,2013-03-04 22:30:00,
2013-03-04 16:40:00,76.8,60.9,29.72,SE,136,8.0,8.0,58,0.00,,,0.00,Wunderground v.1.15,2013-03-04 22:40:00,
2013-03-04 16:45:00,76.3,60.9,29.72,SSE,163,9.0,9.0,59,0.00,,,0.00,Wunderground v.1.15,2013-03-04 22:45:00,
2013-03-04 16:50:00,76.0,61.1,29.72,SSE,162,10.0,12.0,60,0.00,,,0.00,Wunderground v.1.15,2013-03-04 22:50:00,
2013-03-04 16:55:00,75.5,61.1,29.72,SSE,160,11.0,12.0,61,0.00,,,0.00,Wunderground v.1.15,2013-03-04 22:55:00,
2013-03-04 17:00:00,74.9,61.0,29.72,SSE,148,11.0,11.0,62,0.00,,,0.00,Wunderground v.1.15,2013-03-04 23:00:00,
2013-03-04 17:10:00,74.5,61.5,29.72,South,186,10.0,14.0,64,0.00,,,0.00,Wunderground v.1.15,2013-03-04 23:10:00,
2013-03-04 17:15:00,74.2,61.2,29.72,SSE,153,10.0,14.0,64,0.00,,,0.00,Wunderground v.1.15,2013-03-04 23:15:00,
2013-03-04 17:20:00,73.8,61.3,29.72,SSW,193,11.0,11.0,65,0.00,,,0.00,Wunderground v.1.15,2013-03-04 23:20:00,
2013-03-04 17:25:00,73.3,61.3,29.72,SSE,166,13.0,13.0,66,0.00,,,0.00,Wunderground v.1.15,2013-03-04 23:25:00,
2013-03-04 17:30:00,73.1,61.5,29.72,SSE,164,13.0,13.0,67,0.00,,,0.00,Wunderground v.1.15,2013-03-04 23:30:00,
2013-03-04 17:35:00,72.9,61.3,29.72,SSE,158,13.0,13.0,67,0.00,,,0.00,Wunderground v.1.15,2013-03-04 23:35:00,
2013-03-04 17:40:00,72.7,61.5,29.72,South,173,12.0,12.0,68,0.00,,,0.00,Wunderground v.1.15,2013-03-04 23:40:00,
2013-03-04 17:45:00,72.4,61.7,29.72,SSE,156,13.0,22.0,69,0.00,,,0.00,Wunderground v.1.15,2013-03-04 23:45:00,
2013-03-04 17:50:00,72.1,61.8,29.72,South,169,13.0,13.0,70,0.00,,,0.00,Wunderground v.1.15,2013-03-04 23:50:00,
2013-03-04 18:00:00,71.6,61.3,29.72,SE,132,12.0,17.0,70,0.00,,,0.00,Wunderground v.1.15,2013-03-05 00:00:00,
2013-03-04 18:10:00,71.1,61.6,29.72,SW,215,11.0,20.0,72,0.00,,,0.00,Wunderground v.1.15,2013-03-05 00:10:00,
2013-03-04 18:20:00,70.5,61.4,29.72,South,183,13.0,13.0,73,0.00,,,0.00,Wunderground v.1.15,2013-03-05 00:20:00,
2013-03-04 18:25:00,70.3,61.6,29.72,SSE,155,12.0,18.0,74,0.00,,,0.00,Wunderground v.1.15,2013-03-05 00:25:00,
2013-03-04 18:30:00,70.1,61.4,29.73,SSW,205,11.0,11.0,74,0.00,,,0.00,Wunderground v.1.15,2013-03-05 00:30:00,
2013-03-04 18:35:00,69.9,61.2,29.73,SE,141,10.0,16.0,74,0.00,,,0.00,Wunderground v.1.15,2013-03-05 00:35:00,
2013-03-04 18:40:00,69.7,61.4,29.73,SSW,195,11.0,11.0,75,0.00,,,0.00,Wunderground v.1.15,2013-03-05 00:40:00,
2013-03-04 18:50:00,69.5,61.2,29.74,SSE,166,11.0,11.0,75,0.00,,,0.00,Wunderground v.1.15,2013-03-05 00:50:00,
2013-03-04 18:55:00,69.3,61.4,29.74,SSE,162,10.0,11.0,76,0.00,,,0.00,Wunderground v.1.15,2013-03-05 00:55:00,
2013-03-04 19:00:00,69.2,61.3,29.75,SE,145,9.0,9.0,76,0.00,,,0.00,Wunderground v.1.15,2013-03-05 01:00:00,
2013-03-04 19:10:00,69.0,61.5,29.75,SSW,193,10.0,10.0,77,0.00,,,0.00,Wunderground v.1.15,2013-03-05 01:10:00,
2013-03-04 19:15:00,68.9,61.4,29.75,South,182,10.0,10.0,77,0.00,,,0.00,Wunderground v.1.15,2013-03-05 01:15:00,
2013-03-04 19:25:00,68.7,61.6,29.75,SSW,196,11.0,14.0,78,0.00,,,0.00,Wunderground v.1.15,2013-03-05 01:25:00,
2013-03-04 19:30:00,68.6,61.8,29.75,SSW,194,12.0,12.0,79,0.00,,,0.00,Wunderground v.1.15,2013-03-05 01:30:00,
2013-03-04 19:35:00,68.6,61.8,29.75,SSE,157,12.0,12.0,79,0.00,,,0.00,Wunderground v.1.15,2013-03-05 01:35:00,
2013-03-04 19:40:00,68.5,61.7,29.75,SSE,156,10.0,14.0,79,0.00,,,0.00,Wunderground v.1.15,2013-03-05 01:40:00,
2013-03-04 19:45:00,68.4,61.6,29.75,SSW,193,9.0,14.0,79,0.00,,,0.00,Wunderground v.1.15,2013-03-05 01:45:00,
2013-03-04 19:55:00,68.3,61.9,29.76,SSW,194,10.0,14.0,80,0.00,,,0.00,Wunderground v.1.15,2013-03-05 01:55:00,
2013-03-04 20:00:00,68.3,61.9,29.75,South,169,11.0,11.0,80,0.00,,,0.00,Wunderground v.1.15,2013-03-05 02:00:00,
2013-03-04 20:10:00,68.3,61.9,29.76,SSW,198,10.0,10.0,80,0.00,,,0.00,Wunderground v.1.15,2013-03-05 02:10:00,
2013-03-04 20:15:00,68.3,61.9,29.76,SSE,150,11.0,13.0,80,0.00,,,0.00,Wunderground v.1.15,2013-03-05 02:15:00,
2013-03-04 20:25:00,68.3,61.9,29.76,ESE,121,10.0,15.0,80,0.00,,,0.00,Wunderground v.1.15,2013-03-05 02:25:00,
2013-03-04 20:30:00,68.2,62.1,29.76,SSW,203,12.0,12.0,81,0.00,,,0.00,Wunderground v.1.15,2013-03-05 02:30:00,
2013-03-04 20:35:00,68.2,62.1,29.77,SW,218,12.0,12.0,81,0.00,,,0.00,Wunderground v.1.15,2013-03-05 02:35:00,
2013-03-04 20:40:00,68.1,62.0,29.77,SSE,155,11.0,11.0,81,0.00,,,0.00,Wunderground v.1.15,2013-03-05 02:40:00,
2013-03-04 20:45:00,68.2,62.1,29.77,SSE,160,11.0,16.0,81,0.00,,,0.00,Wunderground v.1.15,2013-03-05 02:45:00,
2013-03-04 20:50:00,68.1,62.0,29.77,SSW,205,11.0,11.0,81,0.00,,,0.00,Wunderground v.1.15,2013-03-05 02:50:00,
2013-03-04 21:00:00,68.1,62.0,29.77,South,176,10.0,10.0,81,0.00,,,0.00,Wunderground v.1.15,2013-03-05 03:00:00,
2013-03-04 21:10:00,68.0,62.3,29.77,South,172,11.0,11.0,82,0.00,,,0.00,Wunderground v.1.15,2013-03-05 03:10:00,
2013-03-04 21:15:00,68.0,62.3,29.77,SW,233,10.0,11.0,82,0.00,,,0.00,Wunderground v.1.15,2013-03-05 03:15:00,
2013-03-04 21:20:00,67.9,62.2,29.78,SW,225,10.0,10.0,82,0.00,,,0.00,Wunderground v.1.15,2013-03-05 03:20:00,
2013-03-04 21:25:00,67.8,62.1,29.78,SSW,201,10.0,10.0,82,0.00,,,0.00,Wunderground v.1.15,2013-03-05 03:25:00,
2013-03-04 21:30:00,67.7,62.3,29.78,SSW,192,9.0,11.0,83,0.00,,,0.00,Wunderground v.1.15,2013-03-05 03:30:00,
2013-03-04 21:35:00,67.6,62.3,29.79,SSE,166,9.0,11.0,83,0.00,,,0.00,Wunderground v.1.15,2013-03-05 03:35:00,
2013-03-04 21:40:00,67.5,62.2,29.79,SSW,192,10.0,10.0,83,0.00,,,0.00,Wunderground v.1.15,2013-03-05 03:40:00,
2013-03-04 21:45:00,67.5,62.2,29.79,South,187,9.0,13.0,83,0.00,,,0.00,Wunderground v.1.15,2013-03-05 03:45:00,
2013-03-04 21:55:00,67.4,62.1,29.79,SSW,197,9.0,9.0,83,0.00,,,0.00,Wunderground v.1.15,2013-03-05 03:55:00,
2013-03-04 22:00:00,67.4,62.1,29.79,SSW,201,9.0,9.0,83,0.00,,,0.00,Wunderground v.1.15,2013-03-05 04:00:00,
2013-03-04 22:10:00,67.3,62.3,29.79,SSE,155,10.0,10.0,84,0.00,,,0.00,Wunderground v.1.15,2013-03-05 04:10:00,
2013-03-04 22:15:00,67.2,62.2,29.79,SE,139,10.0,10.0,84,0.00,,,0.00,Wunderground v.1.15,2013-03-05 04:15:00,
2013-03-04 22:20:00,67.1,62.1,29.78,South,180,9.0,11.0,84,0.00,,,0.00,Wunderground v.1.15,2013-03-05 04:20:00,
2013-03-04 22:25:00,67.1,62.1,29.78,SW,215,10.0,15.0,84,0.00,,,0.00,Wunderground v.1.15,2013-03-05 04:25:00,
2013-03-04 22:30:00,67.1,62.1,29.78,South,173,10.0,11.0,84,0.00,,,0.00,Wunderground v.1.15,2013-03-05 04:30:00,
2013-03-04 22:40:00,67.0,62.3,29.79,South,179,8.0,8.0,85,0.00,,,0.00,Wunderground v.1.15,2013-03-05 04:40:00,
2013-03-04 22:45:00,66.9,62.2,29.79,SSW,201,9.0,9.0,85,0.00,,,0.00,Wunderground v.1.15,2013-03-05 04:45:00,
2013-03-04 22:50:00,66.9,62.2,29.79,SSE,153,8.0,8.0,85,0.00,,,0.00,Wunderground v.1.15,2013-03-05 04:50:00,
2013-03-04 22:55:00,66.8,62.1,29.79,SSE,148,8.0,9.0,85,0.00,,,0.00,Wunderground v.1.15,2013-03-05 04:55:00,
2013-03-04 23:00:00,66.7,62.0,29.79,SSE,162,9.0,12.0,85,0.00,,,0.00,Wunderground v.1.15,2013-03-05 05:00:00,
2013-03-04 23:05:00,66.8,62.1,29.79,SSE,156,9.0,12.0,85,0.00,,,0.00,Wunderground v.1.15,2013-03-05 05:05:00,
2013-03-04 23:15:00,66.6,62.3,29.78,South,169,9.0,13.0,86,0.00,,,0.00,Wunderground v.1.15,2013-03-05 05:15:00,
2013-03-04 23:20:00,66.5,62.2,29.78,South,191,8.0,15.0,86,0.00,,,0.00,Wunderground v.1.15,2013-03-05 05:20:00,
2013-03-04 23:25:00,66.4,62.1,29.78,SSE,167,9.0,23.0,86,0.00,,,0.00,Wunderground v.1.15,2013-03-05 05:25:00,
2013-03-04 23:30:00,66.4,62.1,29.77,SSE,159,10.0,10.0,86,0.00,,,0.00,Wunderground v.1.15,2013-03-05 05:30:00,
2013-03-04 23:35:00,66.3,62.0,29.77,SW,225,10.0,10.0,86,0.00,,,0.00,Wunderground v.1.15,2013-03-05 05:35:00,
2013-03-04 23:40:00,66.3,62.0,29.77,SSW,205,9.0,9.0,86,0.00,,,0.00,Wunderground v.1.15,2013-03-05 05:40:00,
2013-03-04 23:45:00,66.2,62.2,29.78,South,179,9.0,10.0,87,0.00,,,0.00,Wunderground v.1.15,2013-03-05 05:45:00,
2013-03-04 23:50:00,66.2,62.2,29.78,WSW,249,9.0,9.0,87,0.00,,,0.00,Wunderground v.1.15,2013-03-05 05:50:00,
2013-03-04 23:55:00,66.1,62.1,29.77,SSE,159,9.0,9.0,87,0.00,,,0.00,Wunderground v.1.15,2013-03-05 05:55:00,